Weather in Chelnavo-Rozhdestvenskoye

Russia / Tambov Oblast     52°57′18″N   41°11′24″E
temp.,
°C
wind,
m/s
gust,
m/s
humid.,
%
clouds,
%
prec.,
mm/h
press.,
hPa
HPBL,
m
28 november, sun
sun2800:00+1s81594100 1.1 1008529
03:00+2s61397100 1.4 1008403
06:00+2s51199100 0.1 1007290
09:00+2s41099100 0.1 1008254
12:00+3s48100100 0.0 1009213
15:00+3ssw34100100 0.1 101183
18:00+3s3399100 0.1 101253
21:00+3s3496100 0.1 101254
29 november, mon
mon2900:00+4sse3597100 0.0 101286
03:00+4sse4897100 0.0 1012165
06:00+3se41098100 0.0 1009222
09:00+5ese51398100 1.1 1007396
12:00+6sse61396100 2.7 1004590
15:00+6s61497100 4.2 1002502
18:00+8s71598100 0.1 1001582
21:00+8sse71397100 0.4 997422
30 november, tue
tue3000:00+8sse102194100 5.9 9911058
03:00+11s122185100 6.2 9851266
06:00+12s1221807 0.7 9821256
09:00+9sw122174100 1.2 9821239
12:00+4sw142471100 0.1 9851679
15:00+2sw152588100 1.1 9861485
18:00+3sw132169100 0.3 9901254
21:00+2wsw10176387 0.3 9921208
1 december, wed
wed100:00+2sw91362100 0.0 9931295
03:000wsw61079100 0.0 992758
06:000wsw5870100 0.0 9931024
09:00−1w6980100 0.0 993850
12:000w796392 0.0 9951095
15:00−1wsw6106993 0.1 9951303
18:00−2wsw6106819 0.1 996786
21:00−2wsw61172100 0.1 997816
2 december, thu
thu200:00−1wsw61080100 0.1 998949
03:00−2w610745 0.1 1000871
06:00−3wsw597760 0.0 1002650
09:00−3wsw51073100 0.0 1004601
12:00−1ssw61071100 0.0 1004659
15:00−1s71495100 0.4 1003636
18:00+1sw81597100 1.0 1003718
21:00+2sw71493100 1.1 1004633